Temp
76 76 75 75 75 75 74 74 74 72 72 73 73 73 73 73 74 75 75 75 76 79 80 81 80 82 77 80 76 75 75 75 75 75 75 75 75 75 75 74 75 75 75 74 75 74 74 74 74 75 75 76 75 82 86 86 86 86 87 87 86 88
73 74 75 76 77 75 74 73 74 74 74 74 73 72 73 75 74 75 74 77 78 79 80 81 80 79 82 80 79 75 75 75 75 75 75 75 75 74 74 74 74 74 74 74 73 82 80 75 74 75 75 75 81 86 85 85 85 87 88 88 87 80
76 75 75 76 76 76 75 75 72 71 72 73 75 75 72 75 77 78 78 79 77 78 80 81 80 79 80 77 79 75 75 75 75 75 75 75 75 74 74 74 73 74 74 73 79 86 87 87 83 75 75 80 86 87 86 86 86 87 87 87 88 75
76 76 76 76 77 77 75 75 74 73 73 73 74 75 76 77 78 78 79 79 80 79 81 81 78 77 77 82 80 75 74 75 74 74 75 76 74 75 73 72 73 73 75 81 88 89 90 89 87 85 85 87 88 87 86 87 88 87 88 88 89 73
75 74 75 76 76 75 74 74 76 75 75 76 75 74 76 78 77 78 79 80 84 81 82 83 82 83 85 84 85 83 79 79 84 83 76 81 82 82 79 83 83 80 85 89 89 88 88 88 88 88 87 88 87 87 87 87 88 89 88 83 81 74
73 74 75 75 74 73 74 74 73 73 74 76 76 75 76 77 78 77 80 82 81 81 81 83 82 82 84 84 85 85 80 84 85 84 84 85 87 86 84 84 88 87 89 89 88 88 88 88 88 88 89 87 87 86 87 89 88 88 80 80 81 73
73 72 70 70 71 71 70 70 70 71 73 72 77 77 77 79 79 78 79 79 78 79 80 82 83 83 83 85 84 85 86 85 85 85 85 85 84 85 86 87 87 86 87 88 89 89 88 88 87 90 88 88 88 87 86 87 87 86 77 80 80 72
75 69 69 68 69 68 69 70 71 71 72 71 77 77 76 77 78 78 79 80 78 80 81 82 82 83 84 84 84 84 85 86 86 86 85 85 84 85 86 86 86 87 88 88 89 87 88 87 87 87 87 87 86 86 85 87 87 83 79 79 82 76
77 76 75 71 69 68 68 68 68 69 69 70 73 75 74 75 76 79 80 81 80 78 81 82 82 83 84 83 83 83 84 86 87 87 86 86 86 85 84 85 85 87 87 87 88 86 87 88 86 86 87 87 87 85 84 85 86 85 83 80 82 80
77 76 75 76 73 71 68 68 69 70 69 73 73 74 76 77 78 81 82 82 80 78 78 82 82 83 83 82 83 83 84 86 86 86 86 85 86 86 85 86 86 87 89 86 88 87 86 88 89 88 87 86 84 86 84 85 86 83 84 83 82 81
78 76 77 77 77 76 73 70 71 71 70 75 76 77 78 78 79 81 82 81 81 80 79 81 82 82 83 83 83 83 84 85 85 85 85 85 85 85 85 86 86 86 86 87 87 88 88 87 88 90 87 86 86 86 86 86 87 88 88 85 85 83
79 80 78 76 75 74 74 75 76 75 74 76 76 77 78 79 79 80 81 81 81 81 81 80 80 81 81 82 82 82 83 83 83 85 85 85 85 84 85 87 86 85 84 84 86 87 87 87 87 90 90 89 87 86 87 86 87 87 86 86 86 84
80 79 77 76 74 74 74 74 74 74 73 73 74 75 76 77 77 77 77 79 80 81 81 80 79 80 81 82 81 81 82 82 82 83 84 84 85 84 85 84 84 85 85 85 84 85 88 86 86 87 88 89 87 88 89 87 87 86 86 85 85 85
80 79 78 78 78 78 76 75 74 74 74 75 75 75 74 75 77 77 77 78 80 81 81 81 81 80 81 81 80 80 81 81 82 82 83 83 85 85 85 85 84 85 83 84 84 84 85 84 87 87 87 88 87 86 87 90 88 86 84 85 79 83
80 79 80 79 79 78 78 78 78 77 78 77 76 76 76 76 77 78 79 79 79 79 80 81 80 79 80 81 81 80 80 82 82 82 82 82 83 83 84 83 84 84 84 84 86 86 85 83 84 85 85 84 86 88 86 87 86 86 86 84 83 85
79 79 79 79 80 79 79 79 80 78 78 78 79 79 79 79 80 81 81 80 80 79 80 80 80 80 79 80 81 81 80 80 80 82 81 81 81 81 81 81 82 83 81 85 85 86 84 84 83 83 84 84 84 84 85 85 84 86 87 86 84 82
78 78 79 79 79 79 79 80 80 80 80 81 82 81 82 82 81 81 81 81 79 79 79 79 80 80 79 80 81 80 80 80 80 81 80 80 82 81 81 81 79 80 81 81 84 85 84 83 82 82 82 82 82 82 83 83 83 84 87 83 82 81
78 79 79 79 79 79 80 80 80 81 80 81 81 81 82 82 81 82 81 80 79 79 79 79 79 79 78 80 80 80 80 79 80 79 79 80 80 81 81 80 79 80 81 81 81 81 82 83 83 82 80 80 80 81 82 81 81 81 82 81 79 79
78 78 79 79 79 79 79 79 80 79 79 79 80 81 81 81 81 80 80 79 79 79 79 79 79 78 78 80 80 79 78 78 79 78 78 79 79 79 78 79 79 80 80 82 81 81 81 80 81 81 80 79 80 79 80 80 80 80 78 78 78 78
78 78 79 79 80 80 80 80 78 79 79 80 80 80 80 80 80 80 79 79 79 78 79 79 79 79 78 77 78 78 77 78 78 78 77 77 77 78 76 76 76 78 78 80 82 81 81 80 80 78 77 78 79 79 78 78 78 79 77 76 76 77
78 78 79 80 81 81 80 79 79 79 77 78 78 78 78 79 80 79 79 79 79 78 78 78 79 78 77 77 78 78 77 77 78 78 76 75 76 77 77 77 76 77 77 77 77 79 77 80 78 75 76 76 75 78 77 77 76 77 76 76 75 72
78 79 80 80 80 79 81 81 80 80 80 80 80 79 78 79 78 78 78 78 78 78 78 78 78 78 77 77 77 77 77 76 77 77 77 77 77 76 76 76 76 77 80 77 75 78 77 77 75 75 72 72 73 75 76 75 76 76 74 72 71 71
78 79 79 79 80 79 79 79 80 79 80 78 79 80 80 79 78 78 77 78 78 78 78 78 79 78 77 77 76 76 76 76 76 76 76 75 76 75 75 75 75 74 75 78 78 78 76 76 73 75 75 72 69 67 69 71 73 73 72 72 72 71
78 79 79 79 79 79 79 78 79 79 79 79 78 78 78 79 79 78 77 78 78 79 79 79 80 80 78 77 77 76 76 76 75 76 76 75 75 75 74 74 75 74 74 73 78 76 78 76 75 73 70 71 72 72 67 62 65 68 73 71 72 72
78 78 78 78 78 78 77 77 77 77 78 77 78 78 78 77 77 77 77 77 77 79 79 79 80 80 80 77 77 77 77 76 75 75 76 76 75 74 75 75 74 74 73 72 73 74 75 76 76 76 72 69 69 68 69 66 68 65 68 70 72 72
78 78 78 78 78 78 78 77 76 75 74 75 74 75 74 74 75 76 76 77 78 79 79 78 79 79 80 78 77 77 76 77 76 76 76 75 75 75 75 75 75 75 74 73 72 74 73 75 76 75 75 75 72 67 64 69 69 59 66 69 69 73
77 78 78 78 78 78 77 78 77 77 76 76 75 75 76 76 76 77 77 76 77 77 79 78 78 79 79 78 78 77 77 77 78 77 77 75 74 74 76 75 76 74 74 74 73 71 71 73 74 76 76 75 74 75 74 70 67 63 60 60 63 67
77 77 78 78 78 78 77 77 76 76 76 76 76 74 75 76 76 77 76 76 77 78 78 78 78 79 80 79 78 77 77 76 77 77 77 76 75 75 76 76 75 75 75 74 73 72 71 73 70 71 75 73 74 75 75 73 73 70 62 58 56 64
76 76 75 76 77 78 78 77 77 76 75 77 77 76 77 78 77 76 75 76 76 78 77 77 78 77 77 78 77 77 77 77 75 76 77 76 76 75 74 74 73 73 73 73 73 73 72 71 71 70 73 72 73 73 74 73 73 73 70 61 58 59
74 75 76 76 77 77 77 77 76 76 75 75 76 76 77 75 75 75 75 74 74 75 76 76 76 77 76 78 77 77 77 76 75 75 75 75 75 75 74 74 74 73 73 73 73 73 72 72 72 73 73 72 70 69 70 71 71 71 71 65 59 57
75 77 77 77 77 76 77 77 77 76 75 75 75 75 74 74 75 74 74 74 74 74 75 75 75 75 76 77 75 76 75 76 75 74 75 75 75 75 74 74 74 74 73 72 72 72 72 72 73 73 73 72 71 70 69 68 66 70 70 62 61 59
76 76 77 77 76 76 77 77 77 76 76 76 76 75 74 74 75 75 74 74 74 74 74 75 74 75 74 75 74 74 75 74 74 73 73 75 74 74 74 75 75 73 73 73 72 72 72 71 72 72 72 73 73 73 72 72 73 71 66 62 64 61
75 76 76 77 76 76 76 77 77 77 77 77 76 76 76 75 76 75 75 75 74 75 74 73 73 73 73 73 74 73 73 73 73 73 73 74 73 74 73 73 74 73 72 72 72 72 72 70 71 71 71 73 73 73 73 74 72 71 70 66 67 62
75 76 76 76 76 76 76 77 77 77 77 77 76 76 76 76 76 76 76 75 75 74 73 73 73 73 74 75 75 74 73 73 74 75 74 74 73 73 73 73 74 73 72 72 72 73 73 72 71 71 72 72 72 73 73 73 73 73 71 68 63 61
75 76 76 76 76 76 77 77 77 77 77 77 77 77 77 77 76 76 76 75 75 75 74 74 74 74 74 74 74 74 74 74 74 74 74 73 74 74 73 73 73 73 72 72 73 73 72 71 71 71 71 71 72 72 73 74 73 72 73 71 68 60
75 76 77 76 76 76 77 77 76 76 76 76 77 77 77 77 76 76 76 76 75 74 75 74 74 74 73 75 73 73 74 73 74 74 74 74 74 74 73 72 73 72 71 72 72 71 73 72 71 71 72 72 73 72 73 74 74 73 74 72 71 67
76 77 77 77 76 77 77 76 76 76 76 76 76 75 76 75 76 76 76 75 75 75 74 74 74 74 73 74 74 74 74 74 73 74 74 74 73 73 73 72 71 71 70 71 72 71 71 72 72 72 73 72 72 72 73 73 73 73 72 70 70 70
MSLP
1019.41 1019.45 1019.53 1019.49 1019.57 1019.65 1019.69 1019.53 1019.45 1019.53 1019.53 1019.57 1019.61 1019.61 1019.57 1019.49 1019.45 1019.45 1019.45 1019.41 1019.21 1018.97 1018.93 1018.85 1018.93 1018.89 1019.13 1019.05 1019.25 1019.29 1019.25 1019.25 1019.25 1019.25 1019.25 1019.25 1019.21 1019.21 1019.17 1019.17 1019.09 1019.09 1019.09 1019.05 1018.97 1018.97 1018.93 1018.89 1018.93 1018.85 1018.81 1018.77 1018.69 1018.29 1017.97 1017.93 1017.93 1017.89 1017.81 1017.85 1017.97 1018.05
1019.69 1019.65 1019.57 1019.45 1019.45 1019.69 1019.69 1019.57 1019.49 1019.57 1019.53 1019.61 1019.65 1019.69 1019.57 1019.49 1019.69 1019.69 1019.69 1019.45 1019.29 1019.13 1019.05 1018.93 1018.93 1018.97 1018.77 1019.01 1019.13 1019.25 1019.25 1019.25 1019.21 1019.21 1019.21 1019.21 1019.21 1019.21 1019.17 1019.13 1019.09 1019.05 1019.05 1019.05 1019.01 1018.69 1018.81 1018.97 1018.93 1018.85 1018.81 1018.69 1018.41 1017.97 1017.97 1017.93 1017.97 1017.89 1017.81 1017.77 1017.81 1018.45
1019.45 1019.57 1019.65 1019.57 1019.57 1019.69 1019.73 1019.65 1019.69 1019.77 1019.61 1019.57 1019.57 1019.65 1019.77 1019.77 1019.73 1019.69 1019.53 1019.45 1019.37 1019.25 1019.05 1018.97 1018.97 1019.01 1018.93 1019.05 1019.05 1019.21 1019.25 1019.21 1019.17 1019.17 1019.17 1019.17 1019.13 1019.13 1019.09 1019.05 1019.05 1019.05 1019.05 1018.97 1018.77 1018.17 1018.05 1018.21 1018.57 1018.89 1018.77 1018.49 1017.89 1017.77 1017.77 1017.85 1017.77 1017.69 1017.65 1017.85 1017.85 1018.61
1019.53 1019.61 1019.57 1019.61 1019.53 1019.61 1019.77 1019.61 1019.57 1019.53 1019.61 1019.69 1019.65 1019.69 1019.73 1019.69 1019.69 1019.73 1019.57 1019.37 1019.29 1019.25 1019.13 1019.05 1019.13 1019.17 1019.13 1018.85 1018.93 1019.17 1019.25 1019.21 1019.17 1019.17 1019.13 1019.13 1019.17 1019.05 1019.09 1019.09 1018.97 1018.97 1018.89 1018.53 1017.81 1017.65 1017.57 1017.65 1017.85 1018.17 1018.09 1017.81 1017.69 1017.77 1017.77 1017.65 1017.49 1017.65 1017.49 1017.73 1017.81 1018.61
1019.73 1019.77 1019.69 1019.57 1019.61 1019.81 1019.85 1019.69 1019.53 1019.53 1019.61 1019.73 1019.93 1019.97 1019.89 1019.77 1019.85 1019.73 1019.57 1019.41 1019.13 1019.25 1019.13 1018.97 1018.97 1018.85 1018.61 1018.61 1018.49 1018.65 1019.01 1018.97 1018.49 1018.61 1019.01 1018.73 1018.57 1018.73 1018.85 1018.61 1018.61 1018.81 1018.21 1017.69 1017.65 1017.61 1017.61 1017.73 1017.61 1017.65 1017.65 1017.69 1017.65 1017.73 1017.69 1017.65 1017.61 1017.45 1017.45 1018.05 1018.37 1018.57
1019.97 1019.93 1019.77 1019.77 1019.93 1020.01 1019.85 1019.93 1019.97 1019.93 1019.89 1019.93 1020.05 1020.17 1019.97 1019.85 1019.85 1019.81 1019.65 1019.45 1019.45 1019.41 1019.25 1019.05 1019.05 1018.97 1018.77 1018.65 1018.53 1018.33 1018.69 1018.37 1018.33 1018.37 1018.41 1018.17 1018.01 1018.01 1018.25 1018.17 1017.77 1017.93 1017.61 1017.49 1017.57 1017.53 1017.53 1017.61 1017.45 1017.45 1017.37 1017.57 1017.65 1017.73 1017.53 1017.33 1017.49 1017.49 1018.05 1018.05 1018.13 1018.57
1020.21 1020.09 1020.05 1020.17 1020.21 1020.13 1020.21 1020.25 1020.25 1020.17 1020.29 1020.37 1020.21 1020.17 1020.09 1019.89 1019.85 1019.89 1019.85 1019.77 1019.85 1019.73 1019.53 1019.29 1019.09 1018.97 1018.89 1018.53 1018.57 1018.41 1018.29 1018.33 1018.29 1018.29 1018.29 1018.25 1018.33 1018.13 1017.97 1017.89 1017.93 1017.89 1017.77 1017.61 1017.49 1017.41 1017.57 1017.61 1017.57 1017.29 1017.53 1017.61 1017.57 1017.57 1017.65 1017.45 1017.49 1017.57 1018.25 1017.97 1018.13 1018.41
1019.93 1020.69 1020.61 1020.45 1020.45 1020.57 1020.53 1020.57 1020.77 1020.73 1020.65 1020.73 1020.45 1020.37 1020.25 1020.09 1020.01 1020.01 1019.97 1019.85 1019.81 1019.69 1019.49 1019.29 1019.09 1018.97 1018.85 1018.65 1018.73 1018.61 1018.41 1018.29 1018.13 1018.17 1018.25 1018.17 1018.33 1018.21 1018.13 1017.97 1017.93 1017.81 1017.73 1017.61 1017.69 1017.73 1017.57 1017.65 1017.69 1017.61 1017.65 1017.61 1017.73 1017.65 1017.65 1017.53 1017.45 1017.89 1017.81 1018.17 1017.93 1018.17
1019.73 1019.73 1019.89 1020.49 1021.05 1021.21 1021.37 1021.17 1021.17 1021.21 1021.17 1020.73 1020.77 1020.53 1020.37 1020.29 1020.21 1020.05 1019.97 1019.89 1019.81 1019.85 1019.49 1019.29 1019.17 1018.93 1018.77 1018.89 1018.77 1018.65 1018.41 1018.25 1018.09 1018.05 1018.13 1018.13 1018.13 1018.25 1018.25 1018.13 1018.05 1017.85 1017.65 1017.65 1017.57 1017.77 1017.57 1017.53 1017.65 1017.61 1017.57 1017.65 1017.65 1017.69 1017.73 1017.61 1017.57 1017.61 1017.77 1018.17 1017.85 1017.93
1019.81 1019.85 1019.89 1019.93 1020.41 1020.97 1021.61 1021.73 1021.61 1021.45 1021.49 1020.97 1020.73 1020.49 1020.37 1020.37 1020.21 1019.97 1019.85 1019.81 1019.85 1019.89 1019.77 1019.37 1019.25 1019.05 1018.93 1019.01 1018.77 1018.57 1018.41 1018.29 1018.17 1018.09 1018.05 1018.17 1018.01 1018.05 1018.05 1017.97 1017.93 1017.77 1017.61 1017.77 1017.49 1017.61 1017.61 1017.37 1017.33 1017.33 1017.41 1017.53 1017.73 1017.57 1017.61 1017.57 1017.49 1017.45 1017.57 1017.81 1017.77 1017.85
1019.93 1019.89 1019.81 1019.93 1019.97 1020.21 1020.81 1021.33 1021.53 1021.37 1021.41 1020.77 1020.53 1020.37 1020.33 1020.25 1020.21 1020.05 1019.93 1019.93 1019.85 1019.77 1019.73 1019.49 1019.33 1019.17 1018.93 1018.89 1018.77 1018.65 1018.57 1018.37 1018.33 1018.29 1018.21 1018.13 1018.01 1018.05 1017.97 1017.93 1017.89 1017.85 1017.73 1017.57 1017.57 1017.41 1017.37 1017.41 1017.29 1017.13 1017.41 1017.57 1017.49 1017.41 1017.45 1017.41 1017.29 1017.13 1017.21 1017.53 1017.45 1017.61
1019.89 1019.81 1019.89 1020.09 1020.17 1020.29 1020.37 1020.37 1020.33 1020.45 1020.57 1020.49 1020.45 1020.45 1020.37 1020.33 1020.33 1020.21 1020.05 1019.97 1019.89 1019.77 1019.65 1019.61 1019.53 1019.29 1019.17 1019.09 1018.97 1018.97 1018.77 1018.69 1018.57 1018.29 1018.13 1018.21 1018.09 1018.09 1017.93 1017.89 1017.93 1017.97 1018.01 1017.89 1017.73 1017.49 1017.37 1017.49 1017.37 1017.01 1016.93 1017.17 1017.33 1017.45 1017.37 1017.37 1017.21 1017.13 1017.29 1017.33 1017.45 1017.49
1019.89 1019.97 1020.05 1020.25 1020.33 1020.41 1020.45 1020.53 1020.57 1020.69 1020.77 1020.77 1020.73 1020.73 1020.77 1020.69 1020.61 1020.49 1020.37 1020.17 1020.01 1019.89 1019.73 1019.73 1019.65 1019.53 1019.29 1019.17 1019.21 1019.17 1018.97 1018.89 1018.69 1018.57 1018.33 1018.25 1018.09 1018.09 1017.97 1018.05 1018.09 1017.97 1017.93 1017.81 1017.85 1017.81 1017.57 1017.45 1017.53 1017.37 1017.21 1017.05 1017.05 1017.21 1017.05 1017.17 1017.17 1017.25 1017.33 1017.45 1017.45 1017.53
1020.05 1020.13 1020.17 1020.13 1020.17 1020.37 1020.53 1020.65 1020.69 1020.77 1020.81 1020.77 1020.81 1020.89 1020.93 1020.85 1020.69 1020.57 1020.45 1020.33 1020.17 1019.97 1019.85 1019.77 1019.65 1019.65 1019.37 1019.29 1019.33 1019.29 1019.21 1019.05 1018.85 1018.69 1018.49 1018.37 1018.17 1017.97 1017.97 1017.97 1018.09 1017.93 1018.17 1018.01 1018.01 1017.85 1017.85 1017.89 1017.49 1017.37 1017.29 1017.29 1017.21 1017.29 1017.25 1016.89 1017.01 1017.33 1017.53 1017.45 1017.97 1017.73
1020.13 1020.21 1020.21 1020.29 1020.37 1020.49 1020.45 1020.53 1020.65 1020.69 1020.69 1020.77 1020.89 1020.93 1020.89 1020.81 1020.73 1020.49 1020.29 1020.33 1020.29 1020.21 1020.05 1019.93 1019.89 1019.89 1019.69 1019.45 1019.37 1019.41 1019.29 1019.05 1018.93 1018.77 1018.61 1018.57 1018.41 1018.25 1018.09 1018.17 1017.97 1017.93 1017.89 1017.85 1017.61 1017.69 1017.89 1018.05 1017.97 1017.77 1017.61 1017.53 1017.49 1017.37 1017.33 1017.25 1017.25 1017.33 1017.25 1017.41 1017.53 1017.33
1020.25 1020.33 1020.37 1020.37 1020.37 1020.37 1020.41 1020.41 1020.53 1020.69 1020.73 1020.73 1020.73 1020.69 1020.57 1020.45 1020.25 1020.17 1020.17 1020.33 1020.33 1020.29 1020.21 1020.13 1020.01 1019.89 1019.89 1019.57 1019.49 1019.45 1019.41 1019.29 1019.21 1018.85 1018.93 1018.85 1018.61 1018.69 1018.61 1018.57 1018.33 1018.17 1018.37 1017.93 1017.73 1017.53 1017.65 1017.97 1017.97 1018.09 1017.81 1017.69 1017.65 1017.57 1017.57 1017.41 1017.53 1017.29 1017.17 1017.01 1017.17 1017.49
1020.45 1020.41 1020.49 1020.45 1020.45 1020.45 1020.45 1020.53 1020.53 1020.57 1020.57 1020.41 1020.37 1020.37 1020.25 1020.17 1020.21 1020.25 1020.25 1020.33 1020.37 1020.37 1020.33 1020.25 1020.13 1020.05 1020.01 1019.81 1019.73 1019.65 1019.57 1019.49 1019.25 1019.13 1019.13 1018.97 1018.81 1018.73 1018.73 1018.77 1018.85 1018.69 1018.65 1018.57 1018.01 1017.81 1017.65 1017.85 1018.05 1018.09 1018.01 1018.01 1017.89 1017.77 1017.73 1017.73 1017.77 1017.61 1017.37 1017.57 1017.65 1017.93
1020.45 1020.41 1020.45 1020.49 1020.49 1020.45 1020.49 1020.49 1020.49 1020.49 1020.53 1020.49 1020.45 1020.33 1020.29 1020.21 1020.33 1020.37 1020.37 1020.49 1020.45 1020.45 1020.45 1020.41 1020.33 1020.25 1020.21 1019.97 1019.85 1019.85 1019.73 1019.69 1019.45 1019.37 1019.29 1019.09 1018.97 1018.73 1018.77 1018.85 1018.97 1018.73 1018.61 1018.61 1018.45 1018.41 1018.13 1017.89 1017.97 1018.05 1018.21 1018.29 1018.29 1018.05 1018.05 1018.05 1018.01 1018.01 1017.93 1018.21 1018.37 1018.49
1020.57 1020.53 1020.49 1020.49 1020.49 1020.53 1020.57 1020.53 1020.57 1020.65 1020.77 1020.73 1020.61 1020.57 1020.45 1020.57 1020.57 1020.53 1020.65 1020.69 1020.65 1020.53 1020.49 1020.45 1020.45 1020.41 1020.37 1020.17 1020.05 1020.05 1020.01 1019.85 1019.61 1019.57 1019.49 1019.33 1019.25 1019.17 1019.17 1019.09 1019.01 1018.69 1018.61 1018.37 1018.45 1018.37 1018.29 1018.29 1018.29 1018.21 1018.33 1018.49 1018.33 1018.37 1018.29 1018.33 1018.29 1018.41 1018.69 1018.77 1018.77 1018.73
1020.61 1020.53 1020.49 1020.53 1020.45 1020.49 1020.45 1020.61 1020.89 1020.73 1020.77 1020.73 1020.65 1020.73 1020.69 1020.73 1020.65 1020.77 1020.81 1020.81 1020.77 1020.73 1020.61 1020.57 1020.57 1020.49 1020.49 1020.45 1020.29 1020.21 1020.17 1019.93 1019.81 1019.69 1019.81 1019.73 1019.57 1019.41 1019.61 1019.53 1019.37 1019.17 1019.09 1018.65 1018.33 1018.37 1018.29 1018.29 1018.37 1018.53 1018.65 1018.45 1018.41 1018.49 1018.61 1018.61 1018.69 1018.77 1018.89 1019.01 1019.09 1019.01
1020.61 1020.53 1020.45 1020.41 1020.29 1020.29 1020.61 1020.73 1020.73 1020.85 1021.13 1021.01 1020.97 1021.05 1021.05 1020.89 1020.85 1020.97 1020.97 1020.93 1020.93 1020.85 1020.85 1020.77 1020.65 1020.61 1020.65 1020.53 1020.41 1020.33 1020.25 1020.13 1019.85 1019.85 1019.93 1019.97 1019.77 1019.61 1019.53 1019.45 1019.41 1019.25 1019.17 1019.13 1019.05 1018.73 1018.89 1018.37 1018.65 1019.05 1018.85 1018.85 1018.97 1018.77 1018.89 1018.97 1019.05 1019.05 1019.21 1019.29 1019.41 1019.65
1020.53 1020.49 1020.41 1020.37 1020.45 1020.53 1020.33 1020.33 1020.53 1020.65 1020.65 1020.69 1020.77 1020.85 1021.01 1021.01 1021.13 1021.13 1021.09 1021.09 1021.01 1020.97 1020.93 1020.89 1020.81 1020.73 1020.69 1020.61 1020.57 1020.45 1020.41 1020.33 1020.13 1020.05 1019.97 1019.85 1019.81 1019.77 1019.69 1019.57 1019.45 1019.29 1018.81 1019.01 1019.33 1018.97 1018.89 1018.73 1018.97 1018.97 1019.33 1019.53 1019.53 1019.25 1019.21 1019.25 1019.29 1019.45 1019.57 1019.81 1019.85 1020.01
1020.49 1020.49 1020.49 1020.41 1020.37 1020.57 1020.53 1020.53 1020.45 1020.69 1020.65 1021.01 1020.85 1020.85 1020.97 1021.09 1021.09 1021.21 1021.21 1021.09 1021.09 1021.01 1020.97 1020.89 1020.73 1020.69 1020.69 1020.69 1020.65 1020.61 1020.57 1020.45 1020.33 1020.21 1020.21 1020.13 1019.97 1020.01 1019.85 1019.81 1019.69 1019.73 1019.53 1018.89 1018.85 1018.81 1018.97 1018.93 1019.33 1018.93 1018.81 1019.25 1019.77 1020.37 1020.13 1019.85 1019.81 1019.89 1019.93 1020.01 1019.93 1020.05
1020.61 1020.53 1020.57 1020.49 1020.49 1020.49 1020.53 1020.57 1020.57 1020.69 1020.73 1020.69 1021.09 1021.13 1021.13 1021.05 1021.09 1021.17 1021.29 1021.17 1021.05 1021.01 1020.89 1020.81 1020.69 1020.57 1020.69 1020.73 1020.69 1020.65 1020.57 1020.57 1020.53 1020.33 1020.29 1020.29 1020.21 1020.13 1020.05 1019.93 1019.77 1019.73 1019.61 1019.65 1018.97 1019.13 1018.89 1018.93 1019.05 1019.33 1019.69 1019.29 1019.01 1019.01 1020.01 1021.13 1020.69 1020.53 1020.01 1020.25 1020.25 1020.21
1020.61 1020.65 1020.61 1020.69 1020.61 1020.61 1020.73 1020.81 1020.81 1020.89 1020.85 1021.09 1021.01 1021.09 1021.17 1021.33 1021.29 1021.25 1021.21 1021.25 1021.21 1020.97 1020.93 1020.89 1020.73 1020.65 1020.61 1020.77 1020.73 1020.69 1020.61 1020.61 1020.65 1020.53 1020.29 1020.29 1020.33 1020.29 1020.09 1019.97 1019.93 1019.85 1019.85 1019.97 1019.73 1019.41 1019.17 1019.05 1019.01 1018.93 1019.45 1019.73 1019.53 1019.45 1019.25 1020.33 1020.09 1020.89 1020.57 1020.53 1020.49 1020.49
1020.57 1020.53 1020.61 1020.65 1020.57 1020.49 1020.61 1020.77 1021.05 1021.29 1021.49 1021.41 1021.53 1021.49 1021.61 1021.69 1021.49 1021.45 1021.49 1021.21 1021.17 1021.01 1020.97 1020.97 1020.81 1020.73 1020.73 1020.69 1020.77 1020.73 1020.69 1020.53 1020.57 1020.57 1020.53 1020.49 1020.37 1020.29 1020.21 1020.13 1019.97 1019.85 1019.89 1019.81 1019.89 1019.65 1019.57 1019.21 1019.05 1019.09 1018.97 1019.13 1019.45 1020.13 1020.53 1019.61 1019.69 1021.73 1021.09 1020.81 1020.73 1020.61
1020.61 1020.61 1020.53 1020.57 1020.49 1020.41 1020.61 1020.69 1020.89 1020.97 1021.05 1021.17 1021.37 1021.45 1021.33 1021.33 1021.33 1021.25 1021.17 1021.25 1021.21 1021.13 1020.93 1020.93 1020.89 1020.77 1020.73 1020.73 1020.69 1020.65 1020.69 1020.53 1020.45 1020.53 1020.49 1020.53 1020.57 1020.41 1020.17 1020.25 1020.05 1020.05 1019.97 1019.81 1019.77 1019.97 1019.85 1019.61 1019.29 1019.13 1019.01 1019.01 1019.05 1019.01 1019.09 1019.73 1020.05 1020.89 1021.73 1022.05 1021.69 1021.41
1020.45 1020.45 1020.45 1020.45 1020.45 1020.33 1020.57 1020.73 1020.93 1021.01 1021.01 1021.05 1021.09 1021.37 1021.37 1021.33 1021.21 1021.13 1021.25 1021.25 1021.01 1020.97 1020.97 1020.97 1020.97 1020.85 1020.69 1020.73 1020.77 1020.73 1020.61 1020.69 1020.57 1020.53 1020.49 1020.57 1020.65 1020.53 1020.33 1020.25 1020.17 1020.01 1019.97 1019.89 1019.93 1020.01 1019.97 1019.61 1019.97 1019.81 1019.29 1019.29 1019.17 1019.01 1019.05 1019.21 1019.25 1019.57 1020.77 1021.97 1022.57 1022.05
1020.49 1020.45 1020.49 1020.45 1020.41 1020.37 1020.45 1020.65 1020.81 1020.89 1021.09 1020.89 1020.93 1021.05 1020.97 1021.01 1021.17 1021.17 1021.33 1021.25 1021.17 1021.05 1021.09 1021.13 1021.01 1021.01 1020.93 1020.81 1020.85 1020.81 1020.73 1020.73 1020.81 1020.69 1020.45 1020.49 1020.53 1020.53 1020.57 1020.57 1020.45 1020.33 1020.29 1020.17 1020.01 1019.97 1019.97 1019.93 1019.97 1020.09 1019.53 1019.57 1019.33 1019.33 1019.25 1019.37 1019.33 1019.37 1019.81 1021.37 1022.21 1022.17
1020.57 1020.49 1020.41 1020.41 1020.41 1020.45 1020.53 1020.61 1020.81 1020.89 1021.05 1021.09 1020.93 1020.97 1020.85 1021.21 1021.25 1021.25 1021.33 1021.45 1021.37 1021.33 1021.17 1021.13 1021.13 1021.09 1021.05 1020.81 1020.93 1020.81 1020.73 1020.89 1020.85 1020.81 1020.69 1020.69 1020.65 1020.57 1020.57 1020.57 1020.57 1020.53 1020.45 1020.29 1020.17 1020.05 1020.05 1019.97 1019.97 1019.77 1019.69 1019.61 1019.69 1019.73 1019.57 1019.37 1019.37 1019.53 1019.45 1020.53 1021.65 1022.37
1020.33 1020.13 1020.17 1020.37 1020.45 1020.57 1020.57 1020.65 1020.73 1020.81 1020.97 1021.05 1021.09 1021.13 1021.21 1021.33 1021.21 1021.33 1021.33 1021.41 1021.45 1021.41 1021.33 1021.33 1021.25 1021.17 1021.17 1021.01 1021.05 1020.97 1021.01 1020.93 1020.93 1020.93 1020.85 1020.73 1020.69 1020.69 1020.65 1020.57 1020.49 1020.53 1020.49 1020.53 1020.37 1020.21 1020.13 1019.97 1019.85 1019.89 1019.77 1019.69 1019.81 1019.89 1020.01 1019.89 1020.21 1019.57 1019.57 1020.89 1021.45 1022.09
1020.17 1020.21 1020.29 1020.37 1020.45 1020.49 1020.53 1020.61 1020.61 1020.69 1020.81 1020.85 1020.93 1021.05 1021.21 1021.33 1021.17 1021.25 1021.25 1021.33 1021.37 1021.37 1021.37 1021.29 1021.33 1021.21 1021.33 1021.25 1021.25 1021.17 1021.13 1021.13 1021.13 1021.13 1021.09 1020.85 1020.93 1020.85 1020.73 1020.65 1020.53 1020.61 1020.65 1020.53 1020.45 1020.33 1020.25 1020.29 1020.13 1020.01 1020.01 1019.89 1019.77 1019.65 1019.65 1019.65 1019.41 1019.53 1020.25 1021.09 1020.81 1021.57
1020.33 1020.17 1020.25 1020.25 1020.41 1020.41 1020.49 1020.53 1020.57 1020.65 1020.65 1020.65 1020.77 1020.81 1020.93 1021.05 1021.01 1021.09 1021.05 1021.25 1021.25 1021.21 1021.25 1021.33 1021.41 1021.37 1021.37 1021.49 1021.33 1021.37 1021.33 1021.29 1021.33 1021.29 1021.29 1021.13 1021.09 1021.09 1020.97 1020.85 1020.81 1020.85 1020.81 1020.77 1020.65 1020.57 1020.41 1020.53 1020.41 1020.25 1020.13 1019.89 1019.81 1019.69 1019.69 1019.53 1019.65 1019.69 1020.01 1020.77 1020.57 1021.53
1020.25 1020.05 1020.05 1020.13 1020.21 1020.33 1020.37 1020.41 1020.41 1020.45 1020.45 1020.57 1020.73 1020.77 1020.81 1020.81 1020.93 1020.89 1020.93 1021.13 1021.17 1021.25 1021.37 1021.45 1021.41 1021.49 1021.41 1021.29 1021.33 1021.37 1021.41 1021.33 1021.25 1021.13 1021.21 1021.25 1021.21 1021.21 1021.13 1020.97 1020.85 1020.97 1021.01 1020.89 1020.81 1020.53 1020.45 1020.53 1020.49 1020.37 1020.13 1020.13 1020.01 1019.89 1019.81 1019.69 1019.73 1019.65 1019.85 1020.45 1021.21 1021.41
1020.01 1019.93 1019.89 1020.01 1020.05 1020.17 1020.21 1020.29 1020.33 1020.37 1020.41 1020.41 1020.57 1020.65 1020.69 1020.65 1020.81 1020.93 1020.89 1021.01 1021.13 1021.21 1021.29 1021.33 1021.37 1021.41 1021.45 1021.37 1021.41 1021.37 1021.33 1021.29 1021.33 1021.29 1021.25 1021.29 1021.21 1021.13 1021.17 1021.05 1020.93 1021.09 1021.09 1020.97 1020.85 1020.65 1020.77 1020.77 1020.61 1020.61 1020.45 1020.29 1020.09 1019.97 1019.89 1019.77 1019.77 1019.85 1019.73 1019.89 1020.25 1021.61
1019.73 1019.69 1019.69 1019.81 1019.89 1019.97 1020.05 1020.09 1020.29 1020.45 1020.45 1020.49 1020.45 1020.53 1020.61 1020.65 1020.73 1020.81 1020.89 1020.93 1021.13 1021.25 1021.25 1021.33 1021.37 1021.41 1021.49 1021.33 1021.45 1021.41 1021.33 1021.37 1021.33 1021.33 1021.29 1021.29 1021.25 1021.13 1021.21 1021.21 1021.09 1021.17 1021.21 1021.09 1020.93 1020.97 1020.65 1020.65 1020.81 1020.69 1020.49 1020.29 1020.13 1020.13 1020.01 1019.93 1019.81 1019.81 1019.65 1019.89 1020.05 1020.73
1019.41 1019.33 1019.41 1019.57 1019.69 1019.77 1019.89 1020.09 1020.25 1020.33 1020.41 1020.49 1020.61 1020.69 1020.69 1020.77 1020.81 1020.85 1020.89 1020.97 1021.09 1021.13 1021.29 1021.37 1021.41 1021.45 1021.53 1021.41 1021.41 1021.37 1021.37 1021.37 1021.41 1021.33 1021.33 1021.29 1021.29 1021.29 1021.37 1021.37 1021.37 1021.37 1021.33 1021.17 1021.05 1021.09 1020.97 1020.85 1020.81 1020.61 1020.45 1020.45 1020.29 1020.25 1020.21 1020.05 1019.97 1019.93 1019.97 1020.13 1020.33 1020.45
Wind_Speed
8 9 7 6 6 7 7 6 7 11 11 10 10 9 8 7 8 6 5 5 3 3 3 3 3 4 7 6 7 7 7 8 8 8 8 8 7 8 8 9 8 8 7 7 6 6 7 6 5 5 5 4 5 5 2 2 3 2 2 4 3 6
6 7 6 5 4 6 5 4 4 6 8 6 7 5 4 6 3 2 2 1 1 2 1 2 3 1 3 6 6 6 6 7 7 7 7 8 7 7 7 8 8 8 8 7 9 7 7 6 5 6 6 6 7 0 1 1 1 2 2 3 3 9
7 7 7 5 4 6 6 4 4 5 7 6 5 4 3 2 1 2 1 1 1 1 1 1 2 3 2 4 5 6 6 6 6 6 6 6 6 6 6 6 6 6 7 9 9 5 5 6 6 7 7 7 3 1 1 1 1 2 2 3 3 10
6 6 5 4 4 5 5 4 5 6 6 4 3 3 2 0 0 1 0 1 1 1 1 1 1 1 4 3 5 4 5 5 6 7 7 6 6 7 6 6 6 7 9 9 5 4 4 3 5 6 5 4 2 1 2 1 0 1 1 4 5 9
5 5 5 4 6 6 5 4 4 4 3 3 3 2 1 1 2 3 3 2 2 2 1 1 1 1 1 1 1 3 2 4 4 4 7 5 6 7 6 4 6 6 6 4 3 1 1 2 2 3 2 2 1 2 1 1 0 1 2 5 4 7
2 4 5 5 6 4 5 5 6 4 3 3 3 3 2 2 2 2 2 3 2 2 1 2 1 1 1 0 0 1 5 2 1 1 3 2 0 1 6 6 4 5 3 3 2 2 2 2 2 3 2 1 2 2 3 1 2 2 6 2 4 7
6 3 4 4 4 4 4 4 3 3 3 2 2 3 3 2 3 3 2 3 2 2 2 1 2 2 2 1 2 1 1 1 1 1 1 1 0 1 2 1 1 2 1 2 2 0 3 3 3 3 1 3 1 2 2 2 2 2 2 2 4 7
5 8 4 5 5 4 3 3 3 3 4 3 1 4 4 3 3 3 2 2 1 1 1 1 2 2 2 2 2 2 2 0 1 1 1 1 2 1 1 1 1 2 3 2 1 2 1 1 2 2 1 2 2 2 2 2 2 3 4 4 4 7
4 4 6 9 9 7 4 4 1 3 1 5 2 3 4 2 2 3 3 3 2 2 2 3 3 3 2 2 1 1 2 0 1 1 1 1 1 1 2 1 1 2 1 1 2 2 2 2 2 3 2 1 2 1 2 3 3 4 3 2 4 5
3 4 3 4 5 9 8 8 2 2 1 5 4 4 4 3 3 3 3 3 2 2 3 2 2 2 2 2 2 2 1 2 2 1 1 1 0 2 1 1 2 2 0 1 1 2 2 2 3 2 1 2 2 3 2 4 3 5 5 4 4 4
4 3 3 4 4 5 8 9 10 8 7 4 5 4 4 3 3 3 3 2 2 2 2 4 4 4 3 3 2 2 2 3 1 1 2 1 1 1 1 1 1 1 1 2 1 1 2 1 1 1 2 1 1 2 2 2 3 2 3 3 4 3
5 6 6 5 4 5 5 5 6 5 5 4 3 3 4 3 3 3 4 3 3 3 3 4 5 4 3 3 3 4 3 3 3 2 2 2 2 2 2 1 1 1 1 3 2 1 1 2 2 1 2 2 1 1 1 2 4 1 2 0 1 2
7 7 7 7 6 5 5 5 6 6 5 4 3 3 3 4 4 3 3 4 3 3 3 3 4 5 4 4 3 3 3 2 2 3 2 3 3 2 2 2 1 2 2 2 2 2 3 2 2 2 3 1 1 1 1 1 1 2 1 2 1 1
7 8 7 6 7 8 7 7 5 4 4 4 4 4 3 3 2 2 3 4 5 5 4 4 4 4 4 4 4 3 3 3 3 3 2 2 3 2 2 1 2 2 1 2 2 2 2 2 2 1 1 2 2 2 2 3 1 0 0 2 2 3
7 8 8 8 9 8 8 8 7 6 6 6 5 5 4 3 3 2 3 4 4 5 5 5 5 4 4 4 3 4 4 3 3 3 3 2 2 2 1 2 2 4 1 2 3 1 2 1 2 2 2 2 2 3 3 2 1 2 2 1 3 1
8 8 8 8 8 8 7 7 7 6 6 6 5 5 4 4 4 4 4 5 6 5 5 5 5 4 4 4 4 4 4 4 3 3 3 3 2 2 2 3 2 3 4 4 4 2 1 1 2 2 2 2 2 3 2 2 2 2 1 2 2 1
8 8 8 8 8 8 7 7 7 6 6 5 5 5 5 5 5 5 5 5 6 5 5 5 5 5 4 4 4 4 4 5 4 3 2 2 2 2 2 2 2 3 4 5 5 5 2 2 1 1 1 3 3 3 3 3 3 2 0 2 1 4
7 7 7 7 7 7 7 7 6 6 5 5 6 5 5 5 5 5 5 6 6 5 5 6 5 5 4 4 5 5 4 4 4 3 3 2 3 3 3 3 3 3 3 4 4 4 4 2 2 1 1 2 3 3 3 3 3 3 4 3 4 5
6 6 6 6 7 7 6 6 6 6 6 5 5 5 5 5 5 5 6 6 6 5 5 6 6 5 5 5 4 5 4 5 4 3 3 3 2 4 4 3 4 1 1 3 3 3 4 3 2 1 0 2 1 3 3 3 3 4 4 4 4 4
6 6 6 6 6 6 5 5 5 4 4 4 5 5 5 5 5 5 5 5 6 5 6 6 6 5 5 5 5 5 5 5 4 4 4 4 4 3 4 3 3 4 3 3 1 3 3 2 1 2 1 1 2 3 5 4 4 5 5 4 5 5
6 6 5 5 4 3 4 4 3 3 4 4 4 5 5 5 5 5 5 6 5 5 5 5 6 5 5 4 4 5 5 5 5 5 4 5 5 5 4 4 3 2 3 2 1 1 2 3 1 2 0 1 2 4 5 5 6 6 6 6 6 7
6 5 4 3 3 3 2 2 2 3 3 4 3 3 4 5 5 5 5 5 5 5 5 5 5 5 5 5 5 4 5 5 5 5 5 5 5 5 5 5 4 3 2 2 2 3 3 4 4 3 3 2 3 4 5 7 7 7 7 6 5 6
5 5 4 4 4 4 3 2 2 4 3 4 4 4 4 5 5 5 5 5 5 5 5 5 5 5 5 5 5 5 5 4 5 5 4 4 4 5 5 5 5 5 4 2 1 1 3 4 4 2 3 4 5 5 3 5 6 7 6 5 5 7
5 4 4 4 4 4 4 4 4 4 4 3 4 4 4 4 5 5 5 5 5 5 5 5 5 5 5 5 5 5 4 5 5 5 4 5 5 5 5 5 5 4 4 3 3 3 2 3 3 3 4 4 2 4 5 4 5 4 7 8 7 7
4 4 4 5 5 6 6 5 5 5 5 5 4 3 3 4 3 4 4 5 5 6 6 6 5 6 5 6 5 5 5 5 5 6 5 5 5 5 5 5 5 4 5 4 3 3 2 3 3 3 3 4 4 5 2 6 6 5 4 7 8 8
4 4 4 5 5 4 4 4 4 4 4 3 3 2 3 3 3 3 4 4 5 5 6 6 6 6 6 5 5 5 5 4 5 5 5 5 5 4 6 6 6 5 4 5 4 3 2 2 2 3 3 2 2 3 4 2 2 3 5 6 7 8
4 3 4 4 4 3 4 3 3 2 1 2 3 3 3 3 2 3 3 3 4 4 5 6 6 6 5 6 5 5 5 5 4 4 4 5 5 6 5 6 6 5 5 4 4 3 3 2 1 2 2 2 2 3 1 3 1 7 5 4 6 7
4 4 3 3 3 2 2 3 3 3 2 2 2 4 4 3 2 2 3 3 2 3 5 5 6 6 6 6 5 4 4 4 4 4 3 4 5 5 5 6 6 6 5 5 5 4 4 3 3 2 2 3 2 1 2 1 4 4 6 7 5 6
5 5 4 3 3 3 2 2 3 3 3 2 2 3 3 3 2 2 2 2 2 3 4 5 5 5 6 5 5 4 4 4 4 4 4 4 4 5 6 6 7 6 6 5 5 5 4 4 4 4 3 2 2 2 2 2 2 3 2 6 7 7
7 6 5 5 3 3 3 3 3 4 4 3 3 3 2 3 3 2 2 1 1 1 3 3 4 5 5 5 5 5 4 4 4 4 4 5 5 5 5 6 6 6 7 6 5 5 5 4 4 4 3 3 3 2 1 1 0 1 4 10 7 7
8 5 6 5 5 4 4 4 4 4 5 5 4 4 3 4 3 2 1 1 1 2 2 3 3 3 4 4 4 4 4 4 4 4 4 4 4 5 5 5 5 6 6 7 6 5 4 5 4 4 4 3 3 3 3 4 2 2 4 7 8 7
7 6 5 5 5 5 4 4 4 4 5 4 4 4 4 3 3 3 2 1 1 1 1 1 2 2 3 4 3 3 3 3 3 3 3 3 4 4 4 4 5 5 6 6 6 6 5 5 5 3 4 4 3 3 2 3 4 3 4 5 6 9
7 7 7 6 6 6 5 5 5 5 4 4 4 3 3 3 3 2 2 1 1 1 1 1 2 2 3 2 1 2 2 2 2 3 3 2 3 4 4 3 4 5 5 6 5 5 4 5 4 4 3 3 3 3 3 3 3 3 3 4 5 8
8 8 7 7 7 6 6 5 5 4 3 3 4 3 2 3 3 2 2 2 1 1 1 1 2 2 2 1 1 2 1 2 2 2 2 3 3 3 4 3 3 4 4 4 4 3 3 3 3 4 3 3 3 3 3 4 3 2 1 5 4 7
8 8 8 8 6 6 5 6 5 4 3 3 3 3 3 2 2 2 2 2 1 1 1 2 2 2 2 1 1 2 2 2 2 2 2 2 2 1 3 3 3 3 3 3 3 3 3 3 3 4 4 3 3 3 4 3 3 2 1 1 4 9
9 8 8 8 7 6 6 5 5 5 4 3 3 2 2 2 3 2 3 2 3 1 1 1 2 1 1 0 2 1 2 2 1 2 1 1 2 2 3 3 2 2 3 2 3 3 2 2 2 2 3 3 2 4 4 4 3 1 1 1 1 5
9 8 8 8 7 6 6 5 5 5 5 4 4 4 3 3 3 3 3 2 2 2 2 1 1 1 1 1 2 1 2 2 2 1 1 2 2 3 3 2 2 2 3 2 3 3 3 2 2 1 2 2 3 2 3 3 3 1 1 1 2 2
Wind_Direction
64 72 85 87 85 96 83 91 96 90 78 71 76 78 70 59 38 29 13 18 39 58 59 100 145 110 158 122 119 127 131 129 126 126 135 135 138 144 142 150 150 150 155 160 168 170 163 167 166 179 170 210 231 234 64 60 67 88 90 111 155 96
79 73 92 90 83 89 95 64 60 83 80 78 83 87 64 66 57 17 305 270 43 55 20 82 80 121 113 140 138 131 137 139 136 138 138 150 145 149 158 156 163 160 165 176 185 182 168 166 182 175 193 212 228 79 161 66 88 84 97 115 108 107
81 101 90 83 81 86 87 82 62 73 82 67 79 84 68 100 196 207 183 108 101 97 66 54 53 22 8 39 107 146 144 148 152 152 157 155 166 159 164 172 167 177 183 195 201 207 180 165 167 193 209 220 235 223 43 301 196 145 119 71 99 119
61 68 79 93 102 98 98 84 71 61 64 63 49 59 91 159 16 321 357 58 98 67 69 74 65 246 243 199 145 165 169 169 173 180 175 186 177 175 183 191 190 195 205 205 210 184 187 176 170 186 198 221 233 127 232 194 204 115 53 128 94 136
61 63 79 88 87 86 92 96 84 73 69 92 91 75 25 88 33 28 23 350 50 40 35 58 60 128 251 125 152 153 102 233 182 172 181 224 185 154 202 203 177 203 226 194 187 194 164 184 212 205 194 256 222 235 223 219 105 250 115 59 77 136
73 72 72 69 80 93 111 111 112 102 98 101 117 116 140 94 73 45 19 41 31 60 37 76 88 69 101 33 9 87 172 177 111 146 203 243 238 192 183 197 192 193 194 206 198 203 192 231 207 203 267 153 261 214 252 187 134 240 64 168 133 156
91 37 70 69 70 72 63 67 88 103 87 74 114 119 110 99 98 74 44 53 68 54 56 67 74 69 40 48 49 12 87 142 138 123 149 264 325 258 282 190 206 221 219 246 238 130 209 192 288 320 189 240 209 227 234 247 185 132 136 158 151 173
112 126 128 89 91 80 88 75 58 57 65 15 148 122 116 106 95 94 94 106 123 108 92 92 78 56 64 38 33 32 354 28 165 145 133 245 204 208 257 258 270 245 235 224 196 252 294 289 222 249 259 242 204 220 237 232 225 93 214 127 196 184
94 97 123 132 132 130 76 45 24 88 234 147 222 117 119 124 118 115 106 86 57 15 32 31 18 24 29 22 357 351 292 7 296 70 216 172 211 206 192 239 257 260 201 251 195 201 224 198 218 220 245 236 266 223 223 230 215 152 207 180 213 170
84 90 86 100 120 129 138 140 159 100 230 172 145 127 128 131 141 123 103 83 58 17 334 348 25 356 8 355 344 325 300 325 347 23 275 217 194 217 218 192 219 243 86 202 251 67 273 233 206 206 213 239 217 238 190 232 222 192 192 202 201 175
98 106 122 113 111 118 135 146 159 159 146 139 127 127 124 115 96 75 65 44 41 42 357 4 7 353 1 338 357 336 340 321 301 313 299 294 229 265 249 272 268 317 319 323 333 122 255 238 281 216 110 244 242 239 228 252 243 251 204 188 200 184
102 102 96 83 77 74 66 63 69 77 61 66 70 83 87 77 61 50 32 24 28 19 9 27 9 3 2 3 4 357 354 345 333 317 302 299 242 294 285 306 344 268 325 295 291 267 273 276 280 326 253 128 67 282 228 232 252 187 261 183 259 179
97 96 95 93 94 88 86 83 81 80 85 79 76 65 66 60 58 55 31 22 21 36 19 31 32 15 4 31 18 359 0 2 355 341 327 319 323 259 259 240 238 288 263 259 263 265 294 310 270 293 304 345 228 241 332 244 258 285 323 243 226 226
104 104 102 103 107 103 101 104 107 110 115 110 87 83 71 66 80 88 68 39 29 33 41 29 24 23 8 25 27 21 1 10 7 347 331 309 274 282 272 276 250 236 268 261 261 294 269 271 299 279 248 337 313 316 297 280 48 122 296 278 74 273
112 107 107 108 111 118 123 119 119 118 112 109 109 112 122 119 106 67 71 71 55 44 37 41 33 15 13 14 32 41 9 17 3 344 350 6 310 292 293 291 326 293 294 260 277 214 313 308 297 312 354 318 323 330 311 326 355 306 199 147 245 133
117 113 113 116 116 116 120 116 116 122 124 131 126 119 106 89 79 84 73 69 59 52 47 45 37 24 23 24 28 37 36 24 350 336 7 354 335 340 6 318 336 310 308 309 279 245 208 317 316 330 332 329 340 335 327 337 5 282 21 266 64 84
121 122 121 123 124 122 124 127 124 124 125 115 100 90 86 82 75 64 56 62 62 56 54 47 40 32 25 31 39 37 39 25 14 10 346 329 328 327 335 337 318 330 311 295 302 308 290 225 228 265 338 351 358 349 4 14 16 359 2 40 10 56
129 131 134 133 130 130 123 126 125 115 107 94 81 72 69 67 64 60 57 58 60 62 56 55 46 41 31 33 35 28 34 22 24 25 26 358 2 347 351 322 310 302 322 299 309 317 303 335 331 306 24 19 19 8 27 20 36 21 32 49 41 54
143 143 144 140 133 124 126 115 119 121 113 104 88 77 67 64 62 63 61 58 55 56 57 54 52 42 33 32 40 40 35 22 25 23 20 24 33 32 14 350 320 321 274 290 326 308 335 325 281 317 28 60 44 57 41 40 42 56 59 52 53 58
155 155 149 150 153 148 143 135 122 126 106 87 85 79 74 73 75 71 70 65 60 54 55 55 54 49 47 33 33 35 34 29 30 27 30 21 9 29 21 358 350 335 332 276 180 324 329 303 336 322 27 96 66 76 64 54 58 64 78 62 62 57
156 166 174 165 158 142 132 127 123 100 109 109 93 94 77 66 71 74 66 65 64 62 58 53 51 49 45 47 39 35 33 26 20 31 29 27 20 15 12 354 334 307 315 320 7 335 315 298 260 210 124 125 89 56 71 63 69 70 63 61 54 63
164 174 167 147 130 135 152 100 127 107 103 105 101 81 80 84 81 78 71 65 60 55 55 59 49 46 43 37 37 38 34 29 21 28 20 23 24 20 13 11 348 331 322 340 352 349 360 306 234 261 231 166 105 81 69 70 74 72 69 69 73 72
151 153 145 145 153 122 106 89 89 111 105 97 78 74 80 82 86 82 71 63 55 48 50 46 45 53 42 37 39 37 36 30 24 21 23 27 27 26 13 12 9 0 346 323 212 82 7 326 302 286 274 256 189 176 110 89 75 69 70 73 77 81
144 144 135 116 108 113 106 108 105 106 107 102 107 112 112 107 94 90 81 64 53 46 40 39 40 43 52 42 37 38 46 38 34 25 24 33 29 24 18 11 13 15 360 338 1 33 10 355 331 321 244 249 280 272 197 149 104 74 78 74 67 74
147 142 132 134 133 131 135 132 124 126 120 120 134 121 111 91 91 92 81 61 54 48 44 38 38 35 43 45 37 35 33 48 39 30 24 34 33 27 24 24 16 12 21 356 358 356 34 348 357 355 317 286 248 226 340 148 141 76 43 81 76 78
154 152 141 145 150 157 144 138 145 154 153 147 128 134 90 89 92 72 72 79 60 41 46 37 32 39 34 35 38 38 31 33 44 35 29 29 30 27 30 23 23 16 20 18 347 339 14 32 346 12 0 10 354 309 332 15 141 123 64 68 91 77
165 153 148 153 159 146 138 139 148 139 120 113 109 98 102 107 99 101 100 69 61 48 32 37 34 30 37 31 31 31 32 21 37 38 34 27 29 18 28 27 18 24 20 16 2 6 360 16 14 358 355 23 9 336 325 289 321 109 115 48 40 80
175 165 161 157 164 142 134 141 153 153 156 150 112 117 142 122 106 116 105 82 76 70 45 28 21 25 18 32 22 24 26 31 19 44 27 37 31 27 22 27 21 20 25 22 19 10 6 5 8 38 13 14 0 15 338 289 280 275 132 133 99 88
179 166 158 176 171 153 157 163 172 170 166 146 137 145 150 142 138 111 112 97 40 31 45 23 19 21 19 23 20 20 16 27 24 26 17 35 33 32 27 27 27 24 19 24 19 15 9 17 24 27 341 36 333 357 359 14 351 270 205 131 130 131
179 182 171 180 182 165 172 189 189 189 180 164 169 152 172 150 164 174 142 125 80 48 25 31 22 20 8 17 13 9 12 25 24 26 26 31 24 26 26 29 27 28 23 20 25 17 13 21 29 29 23 3 3 341 296 247 177 241 218 149 138 150
186 183 171 180 183 175 181 199 197 192 181 173 171 168 176 173 170 186 168 137 118 48 25 25 15 27 13 11 12 10 9 18 30 22 20 26 20 19 15 16 22 13 23 15 17 15 19 22 24 34 28 29 22 14 2 337 346 343 304 109 147 144
185 186 183 184 187 181 189 199 205 194 182 176 177 180 189 184 183 188 173 145 116 128 66 32 17 16 31 4 13 9 26 30 37 33 24 26 22 19 11 10 12 13 9 11 16 6 18 17 23 29 46 37 34 24 18 340 5 336 33 122 147 143
199 192 193 189 194 187 195 202 202 197 189 181 192 199 199 184 186 197 175 155 187 79 118 57 45 14 57 31 15 31 23 37 50 50 40 35 60 30 11 6 14 9 9 10 16 3 20 15 10 14 21 39 30 21 26 25 1 353 90 136 149 144
212 200 196 196 198 196 199 204 205 208 192 184 195 201 202 190 175 202 169 160 201 58 74 59 61 41 27 47 68 61 40 49 42 52 65 51 44 38 2 1 5 10 12 16 18 356 34 16 20 16 10 25 23 30 27 17 22 0 112 154 164 146
216 207 201 201 202 206 205 202 202 206 202 203 200 197 196 181 174 191 172 155 143 125 42 48 51 46 54 92 100 70 51 67 59 62 60 29 8 29 8 344 4 4 36 3 38 20 50 25 23 20 25 13 18 38 15 20 35 14 122 236 151 152
220 217 210 207 210 211 214 203 200 202 207 212 220 209 193 180 176 194 169 174 141 151 93 87 74 56 65 135 109 117 97 69 84 74 48 26 6 357 1 356 343 20 40 25 63 39 45 75 47 29 32 2 359 31 10 9 23 16 15 55 21 155
219 223 219 212 215 215 215 212 203 206 210 209 214 216 215 186 186 183 177 176 154 152 127 179 105 61 188 151 183 147 109 103 107 87 40 32 18 8 354 359 18 31 38 51 60 66 56 50 71 18 51 3 15 18 18 1 32 47 79 347 135 278